sat.trackr.live / text

‹ back to catalog

GPS BIIRM-5 (PRN 29)

NORAD 32384 · 2007-062A

PAYLOAD ACTIVE UNKNOWN

§ Identity

Operator
Country
US
Launch date
2007-12-20
Launch site
AFETR
Launch vehicle
Mass (kg)
RCS (m²)
2.00

Purposes: earth_obs, nav

External: N2YO · Heavens-Above · Gunter

§ Orbital elements

Epoch: 2026-09-19T10:34:14.860128Z

Period
717.97 min
Inclination
54.9630°
Eccentricity
0.0035955
Mean motion
2.00565342 rev/d
Perigee alt
20,086.6 km
Apogee alt
20,277.6 km
Semi-major
26,560.2 km
B*
0.0000e+0
RAAN
270.3556°
Arg perigee
170.2079°
Mean anomaly
305.3937°
Rev number
13,740

§ Raw data

GPS BIIRM-5 (PRN 29)1 32384U 07062A   26262.44044977  .00000024  00000+0  00000+0 0  99962 32384  54.9630 270.3556 0035955 170.2079 305.3937  2.00565342137402

JSON: /api/v1/satellites/32384 · /tle

For live sub-satellite position, see the globe view (requires WebGL).

§ Visibility from observer

Set your observer location to see the next 7 days of passes ≥ 10°. The values pass through the URL so the page stays shareable.

No JS? Fill the form by hand. The geolocation button needs JavaScript.